Regional Weather Roundup
Issued by NWS Upton, NY

Current Version | Previous Version | Graphics & Text | Print | Product List | Glossary Off
Versions: 1 2 3 4 5 6 7 8 9 10 11 12 13 14 15 16 17 18 19 20 21 22 23 24 25 26 27 28 29 30 31 32 33 34 35 36 37 38 39 40 41 42 43 44 45 46 47 48 49 50

000
ASUS41 KOKX 260305
RWROKX

REGIONAL WEATHER ROUNDUP
NATIONAL WEATHER SERVICE NEW YORK NY
1000 PM EST SUN JAN 25 2015

NOTE: "FAIR" INDICATES FEW OR NO CLOUDS BELOW 12,000 FEET WITH NO
SIGNIFICANT WEATHER AND/OR OBSTRUCTIONS TO VISIBILITY.

NYZ071-072-176-178-NJZ106-104-260400-
NEW YORK CITY METRO AREA


CITY           SKY/WX    TMP DP  RH WIND       PRES   REMARKS
CENTRAL PARK   CLOUDY    32  10  40 VRB3      29.99R
LAGUARDIA APRT CLOUDY    32  12  43 N10       29.98R WCI  24
KENNEDY INTL   CLOUDY    34  10  37 N13       29.99R WCI  25
NEWARK/LIBERTY CLOUDY    32  12  43 N10       29.99R WCI  24
BRNX BOT. GARD   N/A    N/A N/A N/A NE1       29.99R
TETERBORO      CLOUDY    31   9  39 N8        29.98R WCI  23
$$

NYZ177-179-078>081-260400-
LONG ISLAND NEW YORK

CITY           SKY/WX    TMP DP  RH WIND       PRES   REMARKS
FARMINGDALE    CLOUDY    33  11  39 N13       29.96R WCI  24
ISLIP          CLOUDY    32  13  45 N10       29.96R WCI  24
SHIRLEY        CLOUDY    31  13  47 N6        29.99R WCI  25
WESTHAMPTON    CLOUDY    30  12  47 N10       29.99R WCI  21
MONTAUK POINT    N/A     31   8  38 NW13      29.98R WCI  21
$$

NYZ052-065-067-260400-
HUDSON VALLEY

CITY           SKY/WX    TMP DP  RH WIND       PRES   REMARKS
WHITE PLAINS   MOCLDY    27   9  46 N7        29.96R WCI  19
NEWBURGH       PTCLDY    21   9  58 NE12      29.98R WCI   9
MONTGOMERY     PTCLDY    22   6  50 NE9       29.98R WCI  12
POUGHKEEPSIE   PTCLDY    20   3  48 N7        30.01R WCI  11
ALBANY         MOCLDY    15   1  53 NW7       30.04R WCI   5
$$

NJZ001-105-106-008-010-013-015-019>022-104-260400-
NEW JERSEY

CITY           SKY/WX    TMP DP  RH WIND       PRES   REMARKS
NEWARK/LIBERTY CLOUDY    32  12  43 N10       29.99R WCI  24
TETERBORO      CLOUDY    31   9  39 N8        29.98R WCI  23
CALDWELL       CLOUDY    30  10  43 N5        29.98R WCI  25
MORRISTOWN     CLOUDY    30  12  47 N5        29.99R WCI  25
SOMERVILLE     CLOUDY    32  11  41 N8        29.96R WCI  25
SUSSEX         MOCLDY    26   6  42 VRB3      29.97R
ANDOVER          N/A     26   9  48 NE6       29.97R WCI  19
TRENTON        CLOUDY    34  16  47 NE10      29.94R WCI  26
MILLVILLE      CLOUDY    41  31  67 NE7       29.91S
ATLANTIC CITY  CLOUDY    40  31  70 NE7       29.92F
WRIGHTSTOWN    CLOUDY    35  22  57 NE13      29.92R WCI  27
TOMS RIVER     CLOUDY    34  28  80 NE5       29.95S WCI  30
BELMAR         CLOUDY    36  12  38 N8        29.95R WCI  29
$$

PAZ047>061-062-071-260400-
EASTERN PENNSYLVANIA

CITY           SKY/WX    TMP DP  RH WIND       PRES   REMARKS
PHILADELPHIA   LGT RAIN  39  33  79 NE7       29.94R WCI  34
ALLENTOWN      CLOUDY    32  14  47 NE8       29.96R WCI  25
SCRANTON       CLOUDY    22   8  55 N5        29.95R WCI  16
$$

CTZ002-004>006-009-010-012-RIZ004-006-007-MAZ004-011-015-260400-
SOUTHERN NEW ENGLAND
 IN CT

CITY           SKY/WX    TMP DP  RH WIND       PRES   REMARKS
BRADLEY INTL   CLEAR     19   2  47 NW7       30.00R WCI  10
HARTFORD       PTCLDY    22   2  42 VRB7      30.01R WCI  13
DANBURY        PTCLDY    22   0  38 N7        29.99R WCI  13
WTRBRY/OXFORD  PTCLDY    19   0  42 N8        29.95R WCI   9
BRIDGEPORT     MOCLDY    28  10  46 N7        29.99R WCI  21
MERIDEN        PTCLDY    23   3  42 N7        30.00R WCI  15
NEW HAVEN      MOCLDY    26   6  42 N13       30.00R WCI  15
CHESTER        FAIR      25   5  42 N9        29.97S WCI  15
GROTON         FAIR      25   5  42 N10       29.98R WCI  15
WILLIMANTIC    PTCLDY    22   1  40 W6        29.99R WCI  14

 IN RI

CITY           SKY/WX    TMP DP  RH WIND       PRES   REMARKS
PROVIDENCE     MOCLDY    24   7  48 NW8       29.98R WCI  15
BLOCK ISLAND   PTCLDY    28   5  37 N12G17    29.96R WCI  18
WESTERLY       PTCLDY    26   5  40 N9        29.98R WCI  17

 IN MA

CITY           SKY/WX    TMP DP  RH WIND       PRES   REMARKS
BOSTON         PTCLDY    23   6  48 NW14G22   29.99R WCI  11
WORCESTER      PTCLDY    17   3  54 NW6       29.92R WCI   9
WESTFIELD      PTCLDY    15   2  56 N5        30.00R WCI   8
PROVINCETOWN   CLEAR     28   9  43 NW24G31   29.95R WCI  14
NANTUCKET      MOCLDY    31  12  45 NW13      29.95R WCI  21
$$

ANZ330-335-338-340-345-350-353-355-260400-
COASTAL MARINE OBSERVATIONS


STATION/POSITION TIME  SKY/WX   TEMP    WIND        PRES    VSBY  WAVE
                                AIR SEA DIR/SP/G                  HT/PER
                 (UTC)          (F)     (DEG/KT/KT) (MB)    (MI)  (FT/S)
NY HARB ENTRANCE 0300            36 42   10/ 14/ 16 1014.4          3/11
4S FIRE IS       0300               39                N/A           3/11
20S FIRE ISLAND  0200               41              1014.4          4/11
23SW MTP         0300                                 N/A           5/11
HUDSON CANYON    NOT AVBL
EXECUTION ROCKS  0300            33 35  350/ 10/ 14   N/A
WESTERN LI SOUND 0300            33     350/  8/ 10   N/A           0
CENTRAL LI SOUND 0300            29 36  350/ 17/ 21   N/A           2/ 2
EASTERN LI SOUND NOT AVBL
ROBBINS REEF     0300            33     360/ 14/ 17 1013.7
$$


>>>>>>>>>>>>>>>>>>>>>>>>>>>> KEY <<<<<<<<<<<<<<<<<<<<<<<<<<<
>                                                          <
>     SKY/WX - SKY CONDITION/PRESENT WEATHER               <
>     TMP    - TEMPERATURE IN FAHRENHEIT                   <
>     DP     - DEWPOINT IN FAHRENHEIT                      <
>     RH     - RELATIVE HUMIDITY IN PERCENT                <
>     WIND   - DIRECTION AND SPEED IN MPH                  <
>     PRES   - MEAN SEA LEVEL PRESSURE IN INCHES OF HG     <
>     WCI    - WIND CHILL INDEX                            <
>     VSB    - VISIBILITY IN MILES                         <
>     HX     - HEAT INDEX                                  <
>     TC     - TEMPERATURE IN CELSIUS                      <
>     VRB    - VARIABLE WIND DIRECTION                     <
>                                                          <
>>>>>>>>>>>>>>>>>>>>>>>>>>>> KEY <<<<<<<<<<<<<<<<<<<<<<<<<<<





USA.gov is the U.S. government's official web portal to all federal, state and local government web resources and services.